Weather History for Belmar-Farmingdale, NJ

Change the Weather History Date:

Saturday, May 25, 2013

  Actual Average Record
Temperature  
Mean Temperature 50 °F -  
Max Temperature 57 °F 68 °F 87 °F (2007)
Min Temperature 42 °F 51 °F 42 °F (2013)
Degree Days  
Heating Degree Days 16    
Moisture  
Dew Point 40 °F    
Average Humidity 70    
Maximum Humidity 100    
Minimum Humidity 44    
Precipitation  
Precipitation 0.05 in - - ()
Sea Level Pressure  
Sea Level Pressure 29.96 in    
Wind  
Wind Speed 16 mph (NW)    
Max Wind Speed 29 mph    
Max Gust Speed 44 mph    
Visibility 10 miles    
Events      
Averages and records for this station are not official NWS values.
T = Trace of Precipitation, MM = Missing Value Source: NWS Daily Summary

Daily Weather History Graph

Daily Weather History Graph

Search for Another Location

Airport:

Trip Planner

Search our weather history database for the weather conditions in past years. The results will help you decide how hot, cold, wet, or windy it might be!

Date:

Astronomy

May. 25, 2013 Rise Set
Actual Time 5:32 AM EDT 8:14 PM EDT
Civil Twilight 5:01 AM EDT 8:46 PM EDT
Nautical Twilight 4:21 AM EDT 9:26 PM EDT
Astronomical Twilight 3:36 AM EDT 10:11 PM EDT
Moon 8:59 PM EDT (5/25) 5:57 AM EDT (5/25)
Length of Visible Light 15h 45m
Length of Day
14h 41m
Full, 100% of the Moon is Illuminated
May 25
Full
May 31
Last Quarter
Jun 8
New
Jun 16
First Quarter
Jun 23
Full

Hourly Weather History & Observations

Time (EDT) Temp. Windchill Dew Point Humidity Pressure Visibility Wind Dir Wind Speed Gust Speed Precip Events Conditions
12:15 AM 44.6 °F 37.4 °F 42.8 °F 93% 29.96 in 10.0 mi WNW 16.1 mph 23.0 mph N/A   Overcast
12:35 AM 44.6 °F 37.2 °F 42.8 °F 93% 29.95 in 10.0 mi WNW 17.3 mph 21.9 mph N/A   Overcast
12:55 AM 44.6 °F 38.1 °F 42.8 °F 93% 29.95 in 10.0 mi NW 13.8 mph 21.9 mph 0.02 in   Mostly Cloudy
1:15 AM 44.6 °F 38.1 °F 42.8 °F 93% 29.95 in 10.0 mi NW 13.8 mph 23.0 mph N/A   Overcast
1:35 AM 44.6 °F 38.1 °F 42.8 °F 93% 29.94 in 10.0 mi WNW 13.8 mph 21.9 mph N/A   Overcast
1:55 AM 44.6 °F 38.1 °F 42.8 °F 93% 29.94 in 10.0 mi WNW 13.8 mph 18.4 mph N/A   Overcast
2:15 AM 44.6 °F 38.4 °F 42.8 °F 93% 29.93 in 10.0 mi WNW 12.7 mph 19.6 mph N/A   Overcast
2:35 AM 44.6 °F 38.4 °F 42.8 °F 93% 29.93 in 10.0 mi WNW 12.7 mph - N/A   Mostly Cloudy
2:55 AM 44.6 °F 37.8 °F 42.8 °F 93% 29.93 in 10.0 mi WNW 15.0 mph 20.7 mph N/A   Mostly Cloudy
3:15 AM 44.6 °F 38.4 °F 42.8 °F 93% 29.93 in 10.0 mi WNW 12.7 mph - N/A   Mostly Cloudy
3:35 AM 44.6 °F 38.4 °F 41.0 °F 87% 29.93 in 10.0 mi WNW 12.7 mph - N/A   Mostly Cloudy
3:55 AM 44.6 °F 37.8 °F 41.0 °F 87% 29.92 in 10.0 mi WNW 15.0 mph 18.4 mph N/A   Overcast
4:15 AM 44.6 °F 38.4 °F 41.0 °F 87% 29.92 in 10.0 mi NW 12.7 mph 21.9 mph N/A   Overcast
4:35 AM 42.8 °F 35.4 °F 41.0 °F 93% 29.92 in 10.0 mi WNW 15.0 mph 19.6 mph 0.01 in   Overcast
4:55 AM 44.6 °F 37.4 °F 42.8 °F 93% 29.92 in 10.0 mi WNW 16.1 mph 21.9 mph 0.02 in   Overcast
5:15 AM 44.6 °F 37.8 °F 41.0 °F 87% 29.93 in 10.0 mi WNW 15.0 mph 18.4 mph 0.01 in   Overcast
5:35 AM 44.6 °F 38.4 °F 42.8 °F 93% 29.93 in 10.0 mi WNW 12.7 mph 17.3 mph 0.01 in   Overcast
5:55 AM 44.6 °F 38.1 °F 42.8 °F 93% 29.93 in 10.0 mi WNW 13.8 mph 21.9 mph 0.01 in   Overcast
6:15 AM 44.6 °F 38.1 °F 42.8 °F 93% 29.93 in 10.0 mi WNW 13.8 mph - N/A   Overcast
6:35 AM 44.6 °F 38.8 °F 42.8 °F 93% 29.94 in 10.0 mi WNW 11.5 mph - N/A   Overcast
6:55 AM 44.6 °F 37.8 °F 44.6 °F 100% 29.94 in 10.0 mi WNW 15.0 mph - N/A   Overcast
7:15 AM 44.6 °F 38.8 °F 44.6 °F 100% 29.94 in 10.0 mi WNW 11.5 mph 19.6 mph N/A   Overcast
7:35 AM 44.6 °F 38.1 °F 44.6 °F 100% 29.94 in 10.0 mi WNW 13.8 mph - N/A   Mostly Cloudy
7:55 AM 46.4 °F 40.1 °F 44.6 °F 93% 29.94 in 10.0 mi WNW 15.0 mph 21.9 mph N/A   Mostly Cloudy
8:15 AM 46.4 °F 40.4 °F 44.6 °F 93% 29.94 in 10.0 mi WNW 13.8 mph 20.7 mph N/A   Mostly Cloudy
8:35 AM 46.4 °F 39.8 °F 44.6 °F 93% 29.95 in 10.0 mi WNW 16.1 mph 24.2 mph N/A   Overcast
8:55 AM 46.4 °F 39.5 °F 44.6 °F 93% 29.95 in 10.0 mi WNW 17.3 mph 29.9 mph N/A   Overcast
9:15 AM 48.2 °F - 44.6 °F 87% 29.94 in 10.0 mi NW 17.3 mph 23.0 mph N/A   Overcast
9:35 AM 48.2 °F - 44.6 °F 87% 29.94 in 10.0 mi WNW 15.0 mph 21.9 mph N/A   Overcast
9:55 AM 50.0 °F - 44.6 °F 82% 29.94 in 10.0 mi NW 23.0 mph 31.1 mph N/A   Overcast
10:15 AM 50.0 °F - 44.6 °F 82% 29.94 in 10.0 mi WNW 15.0 mph 29.9 mph N/A   Overcast
10:35 AM 51.8 °F - 42.8 °F 71% 29.93 in 10.0 mi NW 20.7 mph 33.4 mph N/A   Overcast
10:55 AM 53.6 °F - 42.8 °F 67% 29.93 in 10.0 mi NW 21.9 mph 29.9 mph N/A   Overcast
11:15 AM 51.8 °F - 42.8 °F 71% 29.94 in 10.0 mi WNW 24.2 mph 31.1 mph N/A   Overcast
11:35 AM 53.6 °F - 41.0 °F 62% 29.94 in 10.0 mi NW 25.3 mph 31.1 mph N/A   Overcast
11:55 AM - - - N/A% 29.94 in 10.0 mi NW 28.8 mph 40.3 mph N/A   Overcast
12:15 PM 55.4 °F - 39.2 °F 54% 29.94 in 10.0 mi NW 26.5 mph 39.1 mph N/A   Overcast
12:35 PM 53.6 °F - 41.0 °F 62% 29.94 in 10.0 mi NW 25.3 mph 36.8 mph N/A   Overcast
12:55 PM 55.4 °F - 39.2 °F 54% 29.94 in 10.0 mi NW 16.1 mph 36.8 mph N/A   Overcast
1:15 PM 53.6 °F - 39.2 °F 58% 29.95 in 10.0 mi NW 27.6 mph 35.7 mph N/A   Overcast
1:35 PM 53.6 °F - 42.8 °F 67% 29.95 in 10.0 mi NW 21.9 mph 29.9 mph N/A   Overcast
1:55 PM 53.6 °F - 41.0 °F 62% 29.95 in 10.0 mi NW 25.3 mph 34.5 mph N/A   Overcast
2:15 PM 53.6 °F - 39.2 °F 58% 29.95 in 10.0 mi WNW 19.6 mph 29.9 mph N/A   Overcast
2:35 PM 55.4 °F - 39.2 °F 54% 29.94 in 10.0 mi NW 23.0 mph 38.0 mph N/A   Overcast
2:55 PM 57.2 °F - 39.2 °F 51% 29.94 in 10.0 mi NW 26.5 mph 38.0 mph N/A   Mostly Cloudy
3:15 PM 57.2 °F - 39.2 °F 51% 29.94 in 10.0 mi WNW 23.0 mph 33.4 mph N/A   Mostly Cloudy
3:35 PM 55.4 °F - 41.0 °F 58% 29.95 in 9.0 mi NW 25.3 mph 43.7 mph N/A   Overcast
3:55 PM 57.2 °F - 39.2 °F 51% 29.94 in 10.0 mi WNW 24.2 mph 29.9 mph N/A   Mostly Cloudy
4:15 PM 57.2 °F - 37.4 °F 48% 29.94 in 10.0 mi NW 24.2 mph 34.5 mph N/A   Overcast
4:35 PM 55.4 °F - 39.2 °F 54% 29.95 in 10.0 mi NW 18.4 mph 36.8 mph N/A   Overcast
4:55 PM 57.2 °F - 37.4 °F 48% 29.95 in 10.0 mi NW 18.4 mph 26.5 mph N/A   Overcast
5:15 PM 57.2 °F - 37.4 °F 48% 29.95 in 10.0 mi NW 24.2 mph 33.4 mph N/A   Mostly Cloudy
5:35 PM 57.2 °F - 35.6 °F 44% 29.95 in 10.0 mi NW 21.9 mph 34.5 mph N/A   Scattered Clouds
5:55 PM 57.2 °F - 35.6 °F 44% 29.96 in 10.0 mi NNW 27.6 mph 38.0 mph N/A   Mostly Cloudy
6:15 PM 57.2 °F - 35.6 °F 44% 29.97 in 10.0 mi WNW 19.6 mph 28.8 mph N/A   Overcast
6:35 PM 57.2 °F - 35.6 °F 44% 29.97 in 10.0 mi NW 18.4 mph 24.2 mph N/A   Overcast
6:55 PM 55.4 °F - 33.8 °F 44% 29.98 in 10.0 mi NNW 19.6 mph 26.5 mph N/A   Overcast
7:15 PM 55.4 °F - 35.6 °F 47% 29.99 in 10.0 mi NW 13.8 mph 27.6 mph N/A   Overcast
7:35 PM 55.4 °F - 33.8 °F 44% 30.00 in 10.0 mi NW 19.6 mph 31.1 mph N/A   Overcast
7:55 PM 55.4 °F - 33.8 °F 44% 30.02 in 10.0 mi NNW 19.6 mph 28.8 mph N/A   Overcast
8:15 PM 51.8 °F - 37.4 °F 58% 30.02 in 10.0 mi NNW 10.4 mph - N/A   Overcast
8:35 PM 51.8 °F - 39.2 °F 62% 30.02 in 10.0 mi WNW 9.2 mph - N/A   Overcast
8:55 PM 53.6 °F - 35.6 °F 51% 30.02 in 10.0 mi NW 13.8 mph 18.4 mph N/A   Overcast
9:15 PM 53.6 °F - 33.8 °F 47% 30.01 in 10.0 mi WNW 10.4 mph 19.6 mph N/A   Overcast
9:35 PM 53.6 °F - 33.8 °F 47% 30.02 in 10.0 mi NW 15.0 mph 19.6 mph N/A   Overcast
9:55 PM 53.6 °F - 33.8 °F 47% 30.02 in 10.0 mi WNW 13.8 mph 24.2 mph N/A   Overcast
10:15 PM 53.6 °F - 33.8 °F 47% 30.03 in 10.0 mi WNW 12.7 mph 19.6 mph N/A   Overcast
10:35 PM 53.6 °F - 33.8 °F 47% 30.03 in 10.0 mi NW 12.7 mph 19.6 mph N/A   Scattered Clouds
10:55 PM 51.8 °F - 33.8 °F 50% 30.02 in 10.0 mi WNW 9.2 mph - N/A   Clear
11:15 PM 51.8 °F - 33.8 °F 50% 30.02 in 10.0 mi WNW 8.1 mph - N/A   Clear
11:35 PM 51.8 °F - 33.8 °F 50% 30.01 in 10.0 mi WNW 12.7 mph - N/A   Clear
11:55 PM 51.8 °F - 33.8 °F 50% 30.01 in 10.0 mi West 8.1 mph - N/A   Clear